"Pseudo-MPEC" for ZTF10F5

Created 2026 Jul 28 21:35:16 UT using Find_Orb

Click here for an explanation of pseudo-MPECs

 
 Astrometry: 
     ZTF10F5*0C2026 07 27.30405818 25 14.700+22 41 22.23   ~7SHZ 18.03RUNEOCPI41
     ZTF10F5 0C2026 07 27.30441318 25 15.342+22 41 07.42   ~7SHZ 18.03RUNEOCPI41
     ZTF10F5 0C2026 07 27.30452818 25 15.843+22 40 58.70   ~7SHZ 18.04RUNEOCPI41
     ZTF10F5 0C2026 07 27.30487518 25 16.565+22 40 43.41   ~7SHZ 18.04RUNEOCPI41

Station data:
(I41) Palomar Mountain--ZTF  (N33.357336 W116.859780)  US/California.
   Observers B. T. Bolin, Z. T. F. Collaboration. Measurers B. T. Bolin,
   Z.-Y. Lin, F. J. Masci. 1.2-m f/2.4 Schmidt.

Orbital elements:  ZTF10F5
   Perihelion 2026 May 25.809093 +/- 36.4 TT = 19:25:05.6 (JD 2461186.309093)
Epoch 2026 Jul 27.0 TT = JDT 2461248.5   Earth MOID: 0.0097      AutoNEOCP
M  51.867252623 +/- 31              (J2000 ecliptic)
n   0.834000586 +/- 0.257           Peri.  103.823050 +/- 70
a   1.117785518 +/- 0.23            Node   129.728031 +/- 80
e   0.17588909 +/- 0.157            Incl.    4.174126 +/- 9
P   1.182/431.646d         H 26.36  G  0.15   U 11.8  SR
q 0.921179239 +/- 0.168    Q 1.314391797 +/- 0.824
From 4 observations 2026 July 27 (70.6 sec); mean residual 1".18
Residuals in arcseconds: 
260727 I41  .66+  .53-    260727 I41  1.3+  1.4-    
260727 I41  1.9-  1.8+    260727 I41  .01+  .11+    

Ephemerides (geocentric):
Date (UTC) HH   RA             Dec           delta  r     elong  mag " sig PA
---- --------  ------------   ------------  ------ ------ -----  --- --------
2026 07 28 22  19 19 59.911   +04 09 08.53  .01297 1.0267 151.0 18.2  56d  79
2026 07 28 23  19 21 03.582   +03 45 41.55  .01305 1.0268 151.5 18.2  56d  79
2026 07 29 00  19 22 06.424   +03 22 31.39  .01313 1.0269 151.9 18.2  57d  78
2026 07 29 01  19 23 08.450   +02 59 37.97  .01321 1.0270 152.4 18.2  57d  78
2026 07 29 02  19 24 09.674   +02 37 01.18  .01329 1.0271 152.8 18.2  57d  78
2026 07 29 03  19 25 10.107   +02 14 40.92  .01337 1.0273 153.2 18.2  58d  78
2026 07 29 04  19 26 09.765   +01 52 37.07  .01346 1.0274 153.7 18.2  58d  78
2026 07 29 05  19 27 08.659   +01 30 49.51  .01354 1.0275 154.1 18.3  58d  78
2026 07 29 06  19 28 06.801   +01 09 18.12  .01363 1.0276 154.5 18.3  58d  78
2026 07 29 07  19 29 04.205   +00 48 02.76  .01371 1.0277 154.9 18.3  59d  78
2026 07 29 08  19 30 00.881   +00 27 03.30  .01380 1.0278 155.3 18.3  59d  78
2026 07 29 09  19 30 56.843   +00 06 19.59  .01389 1.0279 155.7 18.3  59d  78
2026 07 29 10  19 31 52.102   -00 14 08.51  .01398 1.0281 156.1 18.3  59d  78
2026 07 29 11  19 32 46.668   -00 34 21.14  .01407 1.0282 156.5 18.3  59d  78
2026 07 29 12  19 33 40.555   -00 54 18.47  .01416 1.0283 156.9 18.3  59d  78
2026 07 29 13  19 34 33.772   -01 14 00.65  .01425 1.0284 157.2 18.3  60d  78
2026 07 29 14  19 35 26.330   -01 33 27.83  .01434 1.0285 157.6 18.3  60d  78
2026 07 29 15  19 36 18.240   -01 52 40.18  .01443 1.0286 158.0 18.3  60d  78
2026 07 29 16  19 37 09.513   -02 11 37.86  .01452 1.0287 158.3 18.3  60d  78
2026 07 29 17  19 38 00.159   -02 30 21.04  .01462 1.0289 158.7 18.3  60d  78
2026 07 29 18  19 38 50.188   -02 48 49.87  .01471 1.0290 159.1 18.3  60d  78
2026 07 29 19  19 39 39.610   -03 07 04.53  .01480 1.0291 159.4 18.3  61d  78
2026 07 29 20  19 40 28.435   -03 25 05.19  .01490 1.0292 159.7 18.3  61d  78
2026 07 29 21  19 41 16.672   -03 42 52.01  .01500 1.0293 160.1 18.3  61d  78
2026 07 29 22  19 42 04.331   -04 00 25.16  .01509 1.0294 160.4 18.3  61d  78
2026 07 29 23  19 42 51.421   -04 17 44.82  .01519 1.0296 160.7 18.3  61d  78
2026 07 30 00  19 43 37.950   -04 34 51.16  .01529 1.0297 161.1 18.3  60d  76
2026 07 30 01  19 44 23.929   -04 51 44.34  .01538 1.0298 161.4 18.3  60d  76
2026 07 30 02  19 45 09.365   -05 08 24.53  .01548 1.0299 161.7 18.3  60d  76
2026 07 30 03  19 45 54.268   -05 24 51.91  .01558 1.0300 162.0 18.3  60d  76
2026 07 30 04  19 46 38.645   -05 41 06.64  .01568 1.0301 162.3 18.3  60d  76
2026 07 30 05  19 47 22.505   -05 57 08.90  .01578 1.0302 162.6 18.3  60d  76
2026 07 30 06  19 48 05.856   -06 12 58.85  .01588 1.0304 162.9 18.3  60d  76
2026 07 30 07  19 48 48.706   -06 28 36.65  .01598 1.0305 163.2 18.3  60d  76
2026 07 30 08  19 49 31.062   -06 44 02.48  .01608 1.0306 163.5 18.3  60d  76
2026 07 30 09  19 50 12.934   -06 59 16.50  .01619 1.0307 163.8 18.3  60d  76
2026 07 30 10  19 50 54.327   -07 14 18.87  .01629 1.0308 164.0 18.3  60d  76
2026 07 30 11  19 51 35.250   -07 29 09.76  .01639 1.0309 164.3 18.4  61d  76
2026 07 30 12  19 52 15.709   -07 43 49.33  .01649 1.0311 164.6 18.4  61d  76
2026 07 30 13  19 52 55.712   -07 58 17.73  .01660 1.0312 164.9 18.4  61d  76
2026 07 30 14  19 53 35.266   -08 12 35.14  .01670 1.0313 165.1 18.4  61d  76
2026 07 30 15  19 54 14.378   -08 26 41.69  .01681 1.0314 165.4 18.4  61d  76
2026 07 30 16  19 54 53.054   -08 40 37.56  .01691 1.0315 165.6 18.4  61d  76
2026 07 30 17  19 55 31.301   -08 54 22.90  .01702 1.0316 165.9 18.4  61d  76
2026 07 30 18  19 56 09.126   -09 07 57.85  .01712 1.0317 166.1 18.4  61d  76
2026 07 30 19  19 56 46.535   -09 21 22.57  .01723 1.0319 166.4 18.4  61d  76
2026 07 30 20  19 57 23.534   -09 34 37.20  .01734 1.0320 166.6 18.4  61d  76
2026 07 30 21  19 58 00.129   -09 47 41.91  .01744 1.0321 166.8 18.4  61d  76